Location: Colorado Springs
(38.8340°N, 104.8210°W)
Time: 05:00:33
(UTC-06:00)

Vanguard 1 Rocket - Visible Passes

Search period start: 22 July 2018 00:00
Search period end: 01 August 2018 00:00
Orbit: 652 x 4225 km, 34.3° (Epoch: 21 July)

Date Brightness Start Highest point End Pass type
(mag) Time Alt. Az. Time Alt. Az. Time Alt. Az.
22 Jul 11.7 04:35:02 10° S 04:51:16 21° SE 05:05:25 10° E visible
23 Jul 11.8 03:31:40 10° SE 03:37:48 11° SE 03:43:49 10° ESE visible
24 Jul 11.6 04:34:23 10° S 04:53:31 27° SE 05:10:09 10° E visible
25 Jul 11.6 03:26:43 10° SSE 03:40:00 17° SE 03:52:48 10° E visible
26 Jul 11.4 04:34:38 10° SSW 04:55:39 34° SE 05:14:09 10° E visible
27 Jul 11.5 03:25:20 10° S 03:42:01 23° SE 03:58:22 10° E visible
28 Jul 11.6 02:21:25 10° SE 02:28:57 12° SE 02:36:40 10° ESE visible
28 Jul 11.2 04:35:30 10° SSW 04:57:44 41° SE 05:17:42 10° E visible
29 Jul 11.3 03:27:11 13° S 03:43:56 29° SE 04:02:44 10° E visible
30 Jul 11.4 02:19:59 12° SSE 02:30:49 18° SE 02:44:33 10° E visible
30 Jul 11.1 04:37:16 11° SSW 04:59:48 47° SE 05:20:59 10° E visible
31 Jul 11.1 03:30:02 18° S 03:45:48 35° SE 04:06:29 10° E visible
